Weather History for Glasgow, MT

Change the Weather History Date:

Thursday, April 24, 2014

  Actual Average Record
Temperature  
Mean Temperature 47 °F 48 °F  
Max Temperature 63 °F 61 °F 87 °F (1962)
Min Temperature 31 °F 35 °F 15 °F (1931)
Degree Days  
Heating Degree Days 18 17  
Month to date heating degree days 550 507  
Since 1 July heating degree days 8352 7911  
Cooling Degree Days 0 0  
Month to date cooling degree days 0 0  
Year to date cooling degree days 0 0  
Moisture  
Dew Point 27 °F    
Average Humidity 49    
Maximum Humidity 78    
Minimum Humidity 19    
Precipitation  
Precipitation 0.00 in 0.03 in 0.67 in (1932)
Month to date precipitation 0.32 0.62  
Year to date precipitation 1.38 1.67  
Snow  
Snow 0.00 in 0.10 in 5.30 in (1979)
Month to date snowfall 0.0 1.7  
Since 1 July snowfall 30.4 33.4  
Snow Depth 0.00 in    
Sea Level Pressure  
Sea Level Pressure 29.75 in    
Wind  
Wind Speed 11 mph (West)    
Max Wind Speed 22 mph    
Max Gust Speed 29 mph    
Visibility 10 miles    
Events      
T = Trace of Precipitation, MM = Missing Value Source: NWS Daily Summary

Daily Weather History Graph

Daily Weather History Graph

Search for Another Location

Airport:

Trip Planner

Search our weather history database for the weather conditions in past years. The results will help you decide how hot, cold, wet, or windy it might be!

Date:

Astronomy

Apr. 24, 2014 Rise Set
Actual Time 5:59 AM MDT 8:10 PM MDT
Civil Twilight 5:25 AM MDT 8:44 PM MDT
Nautical Twilight 4:43 AM MDT 9:26 PM MDT
Astronomical Twilight 3:56 AM MDT 10:14 PM MDT
Moon 3:36 AM MDT (4/24) 3:07 PM MDT (4/24)
Length of Visible Light 15h 18m
Length of Day
14h 10m
Waning Crescent, 24% of the Moon is Illuminated
Apr 24
Waning Crescent
Apr 29
New
May 6
First Quarter
May 14
Full
May 21
Last Quarter

Hourly Weather History & Observations

Time (MDT) Temp. Windchill Dew Point Humidity Pressure Visibility Wind Dir Wind Speed Gust Speed Precip Events Conditions
12:53 AM 39.9 °F 32.9 °F 27.0 °F 60% 29.72 in 10.0 mi West 11.5 mph - N/A   Clear
1:53 AM 39.9 °F 32.5 °F 28.0 °F 63% 29.72 in 10.0 mi WSW 12.7 mph - N/A   Scattered Clouds
2:53 AM 36.0 °F 29.6 °F 27.0 °F 70% 29.73 in 10.0 mi West 8.1 mph - N/A   Clear
3:53 AM 36.0 °F 29.6 °F 27.0 °F 70% 29.73 in 10.0 mi WNW 8.1 mph - N/A   Clear
4:53 AM 34.0 °F 27.2 °F 27.0 °F 75% 29.76 in 10.0 mi West 8.1 mph - N/A   Clear
5:53 AM 32.0 °F 24.2 °F 26.1 °F 79% 29.77 in 10.0 mi West 9.2 mph - N/A   Clear
6:53 AM 33.1 °F 28.7 °F 27.0 °F 78% 29.79 in 10.0 mi West 4.6 mph - N/A   Clear
7:53 AM 39.0 °F 32.3 °F 28.9 °F 67% 29.80 in 10.0 mi WNW 10.4 mph - N/A   Partly Cloudy
8:53 AM 46.0 °F 40.2 °F 30.9 °F 56% 29.80 in 10.0 mi WNW 12.7 mph - N/A   Partly Cloudy
9:53 AM 50.0 °F - 30.9 °F 48% 29.79 in 10.0 mi WNW 15.0 mph - N/A   Clear
10:53 AM 53.1 °F - 30.0 °F 41% 29.80 in 10.0 mi WNW 13.8 mph 17.3 mph N/A   Clear
11:53 AM 55.0 °F - 30.0 °F 38% 29.80 in 10.0 mi West 10.4 mph - N/A   Scattered Clouds
12:53 PM 55.9 °F - 28.0 °F 34% 29.78 in 10.0 mi West 10.4 mph - N/A   Mostly Cloudy
1:53 PM 55.9 °F - 25.0 °F 30% 29.75 in 10.0 mi West 11.5 mph 20.7 mph N/A   Partly Cloudy
2:53 PM 61.0 °F - 21.0 °F 21% 29.74 in 10.0 mi West 16.1 mph 27.6 mph N/A   Partly Cloudy
3:53 PM 60.1 °F - 19.0 °F 20% 29.72 in 10.0 mi West 13.8 mph 21.9 mph N/A   Clear
4:53 PM 62.1 °F - 19.0 °F 19% 29.71 in 10.0 mi WNW 10.4 mph 20.7 mph N/A   Partly Cloudy
5:53 PM 59.0 °F - 21.0 °F 23% 29.72 in 10.0 mi WSW 16.1 mph 20.7 mph N/A   Mostly Cloudy
6:53 PM 57.0 °F - 27.0 °F 32% 29.73 in 10.0 mi West 19.6 mph 24.2 mph N/A   Mostly Cloudy
7:53 PM 55.0 °F - 28.9 °F 37% 29.73 in 10.0 mi WNW 10.4 mph - N/A   Mostly Cloudy
8:53 PM 54.0 °F - 30.0 °F 40% 29.73 in 10.0 mi WNW 10.4 mph - N/A   Overcast
9:53 PM 53.1 °F - 33.1 °F 47% 29.74 in 10.0 mi West 9.2 mph - N/A   Overcast
10:53 PM 50.0 °F - 34.0 °F 54% 29.73 in 10.0 mi WSW 5.8 mph - N/A   Partly Cloudy
11:53 PM 48.0 °F - 33.1 °F 56% 29.73 in 10.0 mi WSW 5.8 mph - N/A   Clear